Skip Page Navigation
NASA JPL Caltech
NASA Logo - Jet Propulsion Laboratory + View the NASA Portal
+ Near-Earth Object (NEO) Program
Search JPL
JPL Home Earth Solar System Stars & Galaxies Technology
JPL Solar System Dynamics
BODIES ORBITS EPHEMERIDES TOOLS PHYSICAL DATA DISCOVERY FAQ SITE MAP
JPL Small-Body Database Browser
Search: [ help ]  
249010 Abdel-Samad (2007 QE5)
Classification: Main-belt Asteroid          SPK-ID: 2249010
Ephemeris | Orbit Diagram | Orbital Elements | Physical Parameters | Discovery Circumstances ]

[ show orbit diagram ]
Orbital Elements at Epoch 2457400.5 (2016-Jan-13.0) TDB
Reference: JPL 7 (heliocentric ecliptic J2000)
 Element Value Uncertainty (1-sigma)   Units 
e .02999686601489497 1.409e-07  
a 3.01612403220938 5.9317e-08 au
q 2.92564976373089 4.3463e-07 au
i 7.810564073559144 9.1923e-06 deg
node 255.4004499304181 8.982e-05 deg
peri 69.86841737027407 0.00020588 deg
M 229.680593354708 0.00018969 deg
tp 2458093.094144717219
(2017-Dec-05.59414472)
0.0010187 JED
period 1913.252204845015
5.24
5.6441e-05
1.545e-07
d
yr
n .188161288453428 5.5507e-09 deg/d
Q 3.10659830068787 6.1096e-08 au
  Orbit Determination Parameters
   # obs. used (total)      144  
   data-arc span      4552 days (12.46 yr)  
   first obs. used      2002-09-03  
   last obs. used      2015-02-19  
   planetary ephem.      DE431  
   SB-pert. ephem.      SB431-BIG16  
   condition code      0  
   fit RMS      .64453  
   data source      ORB  
   producer      Otto Matic  
   solution date      2015-Apr-08 00:09:58  

Additional Information
 Earth MOID = 1.92183 au 
 Jupiter MOID = 2.01148 au 
 T_jup = 3.233 
[ show covariance matrix ]

Ephemeris | Orbit Diagram | Orbital Elements | Physical Parameters | Discovery Circumstances ]

Physical Parameter Table
Parameter Symbol Value Units Sigma Reference Notes
absolute magnitude H 16.2 mag n/a MPO326118  

249010 Abdel-Samad           Discovered 2007 Aug. 26 by R. Apitzsch at Wildberg.
Hamed Abdel-Samad (b. 1972) is an Egyptian political scientist whose satirical German TV series "Safary through Germany" has initiated a broad national discussion.
NOTE: some special characters may not display properly (any characters within {} are an attempt to place the proper accent above a character)
Reference: 20110218/MPCPages.arcLast Updated: 2011-02-22

Alternate Designations
 2007 QE5 = 2007 QK3 
Ephemeris | Orbit Diagram | Orbital Elements | Physical Parameters | Discovery Circumstances ]
ABOUT SSD CREDITS/AWARDS PRIVACY/COPYRIGHT GLOSSARY LINKS
FirstGov 2016-Feb-13 23:42 UT
(server date/time)  
NASA Home Page
Site Manager:   Ryan S. Park
Webmaster  Alan B. Chamberlin